Location: Famechon
(49.7599°N, 2.0615°E)
Time: 08:01:46
(UTC+00:00)

MOS 1-B - Pass Details

Date: 03 February 2023
Orbit: 904 x 913 km, 99.4° (Epoch: 30 March)

Event Time Altitude Azimuth Distance (km) Brightness Sun altitude
Rises 18:14:24 0° 152° (SSE) 3,529 7.2 -13.9°
Reaches altitude 10° 18:16:49 10° 150° (SSE) 2,593 6.5 -14.3°
Maximum altitude 18:22:32 67° 69° (ENE) 991 4.3 -15.2°
Drops below altitude 10° 18:28:19 10° 349° (NNW) 2,615 6.8 -16.1°
Sets 18:30:45 0° 346° (NNW) 3,562 7.5 -16.5°
